Time,TemperatureF,DewpointF,PressureIn,WindDirection,WindDirectionDegrees,WindSpeedMPH,WindSpeedGustMPH,Humidity,HourlyPrecipIn,Conditions,Clouds,dailyrainin,SoftwareType,DateUTC
2013-03-04 00:01:00,33.0,32.0,-100.00,SW,235,23.0,32.0,97,0.10,,,-99.99,,2013-03-04 00:01:00,
2013-03-04 00:11:00,32.0,32.0,-100.00,WSW,240,28.0,34.0,97,0.04,,,-99.99,,2013-03-04 00:11:00,
2013-03-04 00:21:00,32.0,32.0,-100.00,WSW,245,26.0,32.0,98,0.06,,,-99.99,,2013-03-04 00:21:00,
2013-03-04 00:32:00,31.0,31.0,-100.00,SW,235,26.0,35.0,99,0.06,,,-99.99,,2013-03-04 00:32:00,
2013-03-04 00:42:00,32.0,32.0,-100.00,WSW,245,26.0,34.0,99,0.03,,,-99.99,,2013-03-04 00:42:00,
2013-03-04 00:52:00,32.0,32.0,-100.00,WSW,240,27.0,34.0,99,0.03,,,-99.99,,2013-03-04 00:52:00,
2013-03-04 01:01:00,33.0,32.0,-100.00,SW,230,26.0,33.0,97,0.01,,,-99.99,,2013-03-04 01:01:00,
2013-03-04 01:11:00,33.0,32.0,-100.00,SW,235,28.0,40.0,96,0.00,,,-99.99,,2013-03-04 01:11:00,
2013-03-04 01:21:00,33.0,32.0,-100.00,SW,235,24.0,36.0,96,0.00,,,-99.99,,2013-03-04 01:21:00,
2013-03-04 01:32:00,33.0,32.0,-100.00,SW,235,29.0,37.0,96,0.03,,,-99.99,,2013-03-04 01:32:00,
2013-03-04 01:42:00,33.0,32.0,-100.00,WSW,255,29.0,40.0,96,0.00,,,-99.99,,2013-03-04 01:42:00,
2013-03-04 01:51:00,33.0,32.0,-100.00,WSW,245,31.0,40.0,96,0.03,,,-99.99,,2013-03-04 01:51:00,
2013-03-04 02:01:00,33.0,32.0,-100.00,WSW,240,27.0,39.0,95,0.00,,,-99.99,,2013-03-04 02:01:00,
2013-03-04 02:11:00,33.0,32.0,-100.00,WSW,250,30.0,40.0,96,0.00,,,-99.99,,2013-03-04 02:11:00,
2013-03-04 02:22:00,33.0,33.0,-100.00,WSW,245,30.0,39.0,96,0.00,,,-99.99,,2013-03-04 02:22:00,
2013-03-04 02:32:00,33.0,32.0,-100.00,WSW,250,26.0,33.0,96,0.00,,,-99.99,,2013-03-04 02:32:00,
2013-03-04 02:42:00,33.0,32.0,-100.00,WSW,255,29.0,38.0,96,0.00,,,-99.99,,2013-03-04 02:42:00,
2013-03-04 02:52:00,33.0,32.0,-100.00,WSW,250,30.0,36.0,95,0.00,,,-99.99,,2013-03-04 02:52:00,
2013-03-04 03:01:00,33.0,32.0,-100.00,WSW,245,33.0,37.0,95,0.00,,,-99.99,,2013-03-04 03:01:00,
2013-03-04 03:11:00,33.0,32.0,-100.00,WSW,255,32.0,37.0,95,0.00,,,-99.99,,2013-03-04 03:11:00,
2013-03-04 03:21:00,33.0,32.0,-100.00,WSW,250,30.0,39.0,94,0.00,,,-99.99,,2013-03-04 03:21:00,
2013-03-04 03:32:00,33.0,32.0,-100.00,WSW,250,29.0,36.0,95,0.00,,,-99.99,,2013-03-04 03:32:00,
2013-03-04 03:42:00,33.0,32.0,-100.00,SW,235,27.0,37.0,94,0.01,,,-99.99,,2013-03-04 03:42:00,
2013-03-04 03:52:00,33.0,32.0,-100.00,WSW,250,29.0,39.0,94,0.01,,,-99.99,,2013-03-04 03:52:00,
2013-03-04 04:01:00,33.0,31.0,-100.00,WSW,250,27.0,42.0,94,0.01,,,-99.99,,2013-03-04 04:01:00,
2013-03-04 04:11:00,33.0,31.0,-100.00,WSW,250,29.0,35.0,94,0.01,,,-99.99,,2013-03-04 04:11:00,
2013-03-04 04:22:00,33.0,31.0,-100.00,WSW,245,32.0,38.0,94,0.01,,,-99.99,,2013-03-04 04:22:00,
2013-03-04 04:32:00,33.0,31.0,-100.00,WSW,250,26.0,38.0,94,0.01,,,-99.99,,2013-03-04 04:32:00,
2013-03-04 04:42:00,33.0,31.0,-100.00,WSW,250,29.0,39.0,94,0.00,,,-99.99,,2013-03-04 04:42:00,
2013-03-04 04:51:00,33.0,31.0,-100.00,WSW,240,26.0,39.0,93,0.00,,,-99.99,,2013-03-04 04:51:00,
2013-03-04 05:01:00,33.0,30.0,-100.00,SW,230,29.0,37.0,91,0.00,,,-99.99,,2013-03-04 05:01:00,
2013-03-04 05:11:00,32.0,30.0,-100.00,WSW,240,27.0,37.0,91,0.00,,,-99.99,,2013-03-04 05:11:00,
2013-03-04 05:22:00,32.0,30.0,-100.00,WSW,250,29.0,37.0,91,0.00,,,-99.99,,2013-03-04 05:22:00,
2013-03-04 05:31:00,32.0,30.0,-100.00,WSW,245,28.0,37.0,91,0.00,,,-99.99,,2013-03-04 05:31:00,
2013-03-04 05:42:00,32.0,29.0,-100.00,WSW,240,28.0,35.0,91,0.00,,,-99.99,,2013-03-04 05:42:00,
2013-03-04 05:52:00,32.0,29.0,-100.00,SW,235,26.0,37.0,91,0.00,,,-99.99,,2013-03-04 05:52:00,
2013-03-04 06:01:00,32.0,29.0,-100.00,WSW,250,32.0,40.0,90,0.00,,,-99.99,,2013-03-04 06:01:00,
2013-03-04 06:11:00,32.0,29.0,-100.00,SW,235,30.0,39.0,90,0.00,,,-99.99,,2013-03-04 06:11:00,
2013-03-04 06:21:00,31.0,29.0,-100.00,WSW,250,26.0,31.0,89,0.00,,,-99.99,,2013-03-04 06:21:00,
2013-03-04 06:32:00,31.0,29.0,-100.00,WSW,250,27.0,35.0,89,0.00,,,-99.99,,2013-03-04 06:32:00,
2013-03-04 06:42:00,31.0,29.0,-100.00,WSW,245,26.0,32.0,89,0.00,,,-99.99,,2013-03-04 06:42:00,
2013-03-04 06:51:00,31.0,28.0,-100.00,WSW,250,26.0,34.0,88,0.00,,,-99.99,,2013-03-04 06:51:00,
2013-03-04 07:01:00,31.0,27.0,-100.00,WSW,255,27.0,35.0,86,0.00,,,-99.99,,2013-03-04 07:01:00,
2013-03-04 07:11:00,31.0,26.0,-100.00,WSW,250,26.0,33.0,83,0.00,,,-99.99,,2013-03-04 07:11:00,
2013-03-04 07:21:00,31.0,26.0,-100.00,WSW,255,28.0,34.0,83,0.00,,,-99.99,,2013-03-04 07:21:00,
2013-03-04 07:32:00,31.0,26.0,-100.00,WSW,255,24.0,32.0,83,0.00,,,-99.99,,2013-03-04 07:32:00,
2013-03-04 07:51:00,31.0,26.0,-100.00,West,265,32.0,39.0,82,0.00,,,-99.99,,2013-03-04 07:51:00,
2013-03-04 08:02:00,30.0,25.0,-100.00,West,260,27.0,36.0,82,0.00,,,-99.99,,2013-03-04 08:02:00,
2013-03-04 08:11:00,30.0,25.0,-100.00,WSW,255,32.0,42.0,81,0.00,,,-99.99,,2013-03-04 08:11:00,
2013-03-04 08:21:00,30.0,25.0,-100.00,West,260,31.0,41.0,81,0.00,,,-99.99,,2013-03-04 08:21:00,
2013-03-04 08:32:00,30.0,26.0,-100.00,WSW,250,27.0,39.0,84,0.01,,,-99.99,,2013-03-04 08:32:00,
2013-03-04 08:41:00,29.0,26.0,-100.00,WSW,250,30.0,35.0,87,0.00,,,-99.99,,2013-03-04 08:41:00,
2013-03-04 08:52:00,29.0,26.0,-100.00,WSW,255,31.0,39.0,87,0.00,,,-99.99,,2013-03-04 08:52:00,
2013-03-04 09:01:00,29.0,26.0,-100.00,WSW,250,32.0,40.0,86,0.01,,,-99.99,,2013-03-04 09:01:00,
2013-03-04 09:11:00,29.0,26.0,-100.00,West,265,29.0,37.0,87,0.01,,,-99.99,,2013-03-04 09:11:00,
2013-03-04 09:21:00,29.0,26.0,-100.00,WSW,250,27.0,36.0,88,0.00,,,-99.99,,2013-03-04 09:21:00,
2013-03-04 09:32:00,29.0,26.0,-100.00,WSW,250,27.0,40.0,88,0.00,,,-99.99,,2013-03-04 09:32:00,
2013-03-04 09:42:00,29.0,26.0,-100.00,WSW,255,31.0,37.0,87,0.00,,,-99.99,,2013-03-04 09:42:00,
2013-03-04 09:51:00,29.0,26.0,-100.00,WSW,250,30.0,39.0,87,0.00,,,-99.99,,2013-03-04 09:51:00,
2013-03-04 10:01:00,28.0,26.0,-100.00,WSW,255,31.0,38.0,89,0.01,,,-99.99,,2013-03-04 10:01:00,
2013-03-04 10:11:00,28.0,26.0,-100.00,WSW,245,30.0,39.0,89,0.00,,,-99.99,,2013-03-04 10:11:00,
2013-03-04 10:21:00,28.0,25.0,-100.00,WSW,240,29.0,37.0,88,0.00,,,-99.99,,2013-03-04 10:21:00,
2013-03-04 10:32:00,28.0,26.0,-100.00,WSW,250,34.0,44.0,89,0.00,,,-99.99,,2013-03-04 10:32:00,
2013-03-04 10:42:00,27.0,24.0,-100.00,WSW,245,29.0,41.0,87,0.00,,,-99.99,,2013-03-04 10:42:00,
2013-03-04 10:52:00,28.0,24.0,-100.00,West,260,31.0,39.0,86,0.00,,,-99.99,,2013-03-04 10:52:00,
2013-03-04 11:01:00,27.0,24.0,-100.00,West,265,24.0,34.0,87,0.00,,,-99.99,,2013-03-04 11:01:00,
2013-03-04 11:11:00,28.0,24.0,-100.00,West,265,26.0,34.0,85,0.01,,,-99.99,,2013-03-04 11:11:00,
2013-03-04 11:21:00,28.0,24.0,-100.00,West,270,28.0,34.0,84,0.00,,,-99.99,,2013-03-04 11:21:00,
2013-03-04 11:32:00,27.0,24.0,-100.00,West,265,26.0,33.0,86,0.01,,,-99.99,,2013-03-04 11:32:00,
2013-03-04 11:42:00,27.0,24.0,-100.00,West,265,24.0,29.0,87,0.00,,,-99.99,,2013-03-04 11:42:00,
2013-03-04 11:52:00,27.0,24.0,-100.00,West,270,22.0,34.0,88,0.03,,,-99.99,,2013-03-04 11:52:00,
2013-03-04 12:01:00,27.0,25.0,-100.00,West,265,19.0,22.0,91,0.07,,,-99.99,,2013-03-04 12:01:00,
2013-03-04 12:11:00,27.0,25.0,-100.00,West,270,17.0,24.0,92,0.03,,,-99.99,,2013-03-04 12:11:00,
2013-03-04 12:22:00,27.0,25.0,-100.00,WSW,245,16.0,20.0,93,0.01,,,-99.99,,2013-03-04 12:22:00,
2013-03-04 12:32:00,27.0,25.0,-100.00,West,270,17.0,21.0,93,0.00,,,-99.99,,2013-03-04 12:32:00,
2013-03-04 12:42:00,27.0,25.0,-100.00,West,265,21.0,25.0,92,0.00,,,-99.99,,2013-03-04 12:42:00,
2013-03-04 12:52:00,27.0,25.0,-100.00,West,270,17.0,26.0,93,0.01,,,-99.99,,2013-03-04 12:52:00,
2013-03-04 13:02:00,26.0,25.0,-100.00,West,265,23.0,27.0,95,0.03,,,-99.99,,2013-03-04 13:02:00,
2013-03-04 13:11:00,26.0,26.0,-100.00,West,265,17.0,27.0,96,0.06,,,-99.99,,2013-03-04 13:11:00,
2013-03-04 13:21:00,26.0,26.0,-100.00,West,265,18.0,23.0,98,0.00,,,-99.99,,2013-03-04 13:21:00,
2013-03-04 13:32:00,25.0,25.0,-100.00,WSW,255,23.0,29.0,98,0.03,,,-99.99,,2013-03-04 13:32:00,
2013-03-04 13:41:00,25.0,25.0,-100.00,WSW,255,21.0,31.0,98,0.00,,,-99.99,,2013-03-04 13:41:00,
2013-03-04 13:51:00,25.0,25.0,-100.00,West,265,19.0,31.0,99,0.00,,,-99.99,,2013-03-04 13:51:00,
2013-03-04 14:01:00,24.0,24.0,-100.00,West,270,23.0,30.0,99,0.00,,,-99.99,,2013-03-04 14:01:00,
2013-03-04 14:11:00,24.0,24.0,-100.00,West,270,22.0,36.0,98,0.00,,,-99.99,,2013-03-04 14:11:00,
2013-03-04 14:22:00,24.0,23.0,-100.00,West,270,32.0,37.0,95,0.00,,,-99.99,,2013-03-04 14:22:00,
2013-03-04 14:32:00,24.0,22.0,-100.00,WSW,245,29.0,44.0,93,0.00,,,-99.99,,2013-03-04 14:32:00,
2013-03-04 14:42:00,22.0,22.0,-100.00,WSW,250,34.0,40.0,98,0.07,,,-99.99,,2013-03-04 14:42:00,
2013-03-04 14:52:00,21.0,21.0,-100.00,West,265,29.0,37.0,99,0.07,,,-99.99,,2013-03-04 14:52:00,
2013-03-04 15:01:00,21.0,21.0,-100.00,West,260,28.0,36.0,99,0.03,,,-99.99,,2013-03-04 15:01:00,
2013-03-04 15:11:00,21.0,21.0,-100.00,WSW,250,23.0,36.0,99,0.00,,,-99.99,,2013-03-04 15:11:00,
2013-03-04 15:21:00,20.0,20.0,-100.00,WSW,255,31.0,37.0,97,0.00,,,-99.99,,2013-03-04 15:21:00,
2013-03-04 15:32:00,20.0,19.0,-100.00,WSW,250,27.0,40.0,94,0.00,,,-99.99,,2013-03-04 15:32:00,
2013-03-04 15:42:00,21.0,19.0,-100.00,West,265,18.0,32.0,93,0.00,,,-99.99,,2013-03-04 15:42:00,
2013-03-04 15:51:00,21.0,19.0,-100.00,West,275,19.0,32.0,92,0.00,,,-99.99,,2013-03-04 15:51:00,
2013-03-04 16:02:00,21.0,19.0,-100.00,WNW,285,15.0,21.0,94,0.00,,,-99.99,,2013-03-04 16:02:00,
2013-03-04 16:11:00,21.0,19.0,-100.00,WNW,295,14.0,21.0,95,0.00,,,-99.99,,2013-03-04 16:11:00,
2013-03-04 16:21:00,20.0,19.0,-100.00,WNW,295,9.0,21.0,96,0.00,,,-99.99,,2013-03-04 16:21:00,
2013-03-04 16:32:00,18.0,17.0,-100.00,North,0,7.0,14.0,97,0.03,,,-99.99,,2013-03-04 16:32:00,
2013-03-04 16:42:00,17.0,17.0,-100.00,North,350,6.0,11.0,97,0.06,,,-99.99,,2013-03-04 16:42:00,
2013-03-04 16:52:00,17.0,17.0,-100.00,North,0,6.0,11.0,98,0.06,,,-99.99,,2013-03-04 16:52:00,
2013-03-04 17:02:00,16.0,15.0,-100.00,North,0,6.0,16.0,98,0.07,,,-99.99,,2013-03-04 17:02:00,
2013-03-04 17:11:00,17.0,16.0,-100.00,NW,325,7.0,16.0,98,0.03,,,-99.99,,2013-03-04 17:11:00,
2013-03-04 17:22:00,15.0,15.0,-100.00,NW,315,9.0,14.0,98,0.04,,,-99.99,,2013-03-04 17:22:00,
2013-03-04 17:32:00,15.0,15.0,-100.00,NW,320,9.0,14.0,98,0.04,,,-99.99,,2013-03-04 17:32:00,
2013-03-04 17:42:00,16.0,15.0,-100.00,NNW,335,7.0,12.0,98,0.03,,,-99.99,,2013-03-04 17:42:00,
2013-03-04 17:52:00,16.0,16.0,-100.00,NW,325,8.0,14.0,98,0.06,,,-99.99,,2013-03-04 17:52:00,
2013-03-04 18:01:00,15.0,15.0,-100.00,NW,325,6.0,10.0,98,0.07,,,-99.99,,2013-03-04 18:01:00,
2013-03-04 18:11:00,15.0,15.0,-100.00,NNW,330,7.0,11.0,98,0.07,,,-99.99,,2013-03-04 18:11:00,
2013-03-04 18:21:00,15.0,15.0,-100.00,West,270,16.0,21.0,98,0.00,,,-99.99,,2013-03-04 18:21:00,
2013-03-04 18:32:00,14.0,14.0,-100.00,West,270,19.0,24.0,99,0.03,,,-99.99,,2013-03-04 18:32:00,
2013-03-04 18:42:00,15.0,15.0,-100.00,West,270,14.0,21.0,99,0.03,,,-99.99,,2013-03-04 18:42:00,
2013-03-04 18:52:00,14.0,14.0,-100.00,West,270,19.0,24.0,99,0.00,,,-99.99,,2013-03-04 18:52:00,
2013-03-04 19:02:00,16.0,16.0,-100.00,West,275,14.0,24.0,99,0.00,,,-99.99,,2013-03-04 19:02:00,
2013-03-04 19:11:00,17.0,16.0,-100.00,West,275,16.0,21.0,98,0.04,,,-99.99,,2013-03-04 19:11:00,
2013-03-04 19:21:00,17.0,16.0,-100.00,WNW,290,12.0,21.0,97,0.00,,,-99.99,,2013-03-04 19:21:00,
2013-03-04 19:32:00,19.0,18.0,-100.00,WNW,285,12.0,22.0,95,0.00,,,-99.99,,2013-03-04 19:32:00,
2013-03-04 19:42:00,19.0,18.0,-100.00,WNW,295,16.0,23.0,94,0.00,,,-99.99,,2013-03-04 19:42:00,
2013-03-04 19:51:00,18.0,17.0,-100.00,West,280,18.0,24.0,93,0.00,,,-99.99,,2013-03-04 19:51:00,
2013-03-04 20:01:00,17.0,15.0,-100.00,West,280,14.0,24.0,93,0.00,,,-99.99,,2013-03-04 20:01:00,
2013-03-04 20:11:00,17.0,15.0,-100.00,West,275,16.0,23.0,93,0.00,,,-99.99,,2013-03-04 20:11:00,
2013-03-04 20:22:00,17.0,15.0,-100.00,West,275,16.0,23.0,93,0.00,,,-99.99,,2013-03-04 20:22:00,
2013-03-04 20:32:00,16.0,14.0,-100.00,West,270,17.0,23.0,93,0.00,,,-99.99,,2013-03-04 20:32:00,
2013-03-04 20:42:00,16.0,14.0,-100.00,West,280,17.0,22.0,91,0.00,,,-99.99,,2013-03-04 20:42:00,
2013-03-04 20:52:00,18.0,15.0,-100.00,WNW,285,15.0,24.0,89,0.00,,,-99.99,,2013-03-04 20:52:00,
2013-03-04 21:02:00,18.0,15.0,-100.00,WNW,285,16.0,21.0,87,0.00,,,-99.99,,2013-03-04 21:02:00,
2013-03-04 21:11:00,20.0,16.0,-100.00,WNW,290,19.0,25.0,85,0.00,,,-99.99,,2013-03-04 21:11:00,
2013-03-04 21:21:00,18.0,14.0,-100.00,WNW,285,14.0,23.0,82,0.00,,,-99.99,,2013-03-04 21:21:00,
2013-03-04 21:32:00,18.0,13.0,-100.00,WNW,285,10.0,18.0,80,0.00,,,-99.99,,2013-03-04 21:32:00,
2013-03-04 21:42:00,17.0,12.0,-100.00,West,280,11.0,16.0,80,0.00,,,-99.99,,2013-03-04 21:42:00,
2013-03-04 21:52:00,17.0,12.0,-100.00,WNW,285,10.0,17.0,82,0.00,,,-99.99,,2013-03-04 21:52:00,
2013-03-04 22:01:00,17.0,14.0,-100.00,West,280,13.0,19.0,87,0.00,,,-99.99,,2013-03-04 22:01:00,
2013-03-04 22:12:00,18.0,15.0,-100.00,West,275,12.0,20.0,86,0.00,,,-99.99,,2013-03-04 22:12:00,
2013-03-04 22:22:00,18.0,13.0,-100.00,West,280,17.0,24.0,81,0.00,,,-99.99,,2013-03-04 22:22:00,
2013-03-04 22:32:00,18.0,14.0,-100.00,West,270,16.0,22.0,83,0.00,,,-99.99,,2013-03-04 22:32:00,
2013-03-04 22:42:00,17.0,14.0,-100.00,West,280,17.0,24.0,86,0.00,,,-99.99,,2013-03-04 22:42:00,
2013-03-04 22:52:00,17.0,14.0,-100.00,West,265,16.0,23.0,87,0.00,,,-99.99,,2013-03-04 22:52:00,
2013-03-04 23:01:00,16.0,13.0,-100.00,West,265,14.0,19.0,89,0.00,,,-99.99,,2013-03-04 23:01:00,
2013-03-04 23:11:00,15.0,12.0,-100.00,West,270,16.0,22.0,88,0.00,,,-99.99,,2013-03-04 23:11:00,
2013-03-04 23:22:00,18.0,14.0,-100.00,West,280,10.0,17.0,84,0.00,,,-99.99,,2013-03-04 23:22:00,
2013-03-04 23:32:00,18.0,13.0,-100.00,WNW,295,14.0,21.0,82,0.00,,,-99.99,,2013-03-04 23:32:00,
2013-03-04 23:42:00,18.0,13.0,-100.00,West,265,11.0,22.0,82,0.00,,,-99.99,,2013-03-04 23:42:00,
2013-03-04 23:52:00,17.0,12.0,-100.00,West,265,13.0,18.0,82,0.00,,,-99.99,,2013-03-04 23:52:00,